TimeCDT,TemperatureF,Dew PointF,Humidity,Sea Level PressureIn,VisibilityMPH,Wind Direction,Wind SpeedMPH,Gust SpeedMPH,PrecipitationIn,Events,Conditions,WindDirDegrees,DateUTC
12:53 AM,81.0,73.9,79,29.99,10.0,Calm,Calm,-,N/A,,Clear,0,2013-08-23 05:53:00
1:53 AM,79.0,73.9,84,29.99,10.0,SSE,3.5,-,N/A,,Clear,160,2013-08-23 06:53:00
2:53 AM,78.1,73.0,84,29.98,10.0,SSE,4.6,-,N/A,,Clear,160,2013-08-23 07:53:00
3:53 AM,78.1,73.0,84,29.97,10.0,South,3.5,-,N/A,,Clear,180,2013-08-23 08:53:00
4:53 AM,77.0,73.0,88,29.97,10.0,Calm,Calm,-,N/A,,Clear,0,2013-08-23 09:53:00
5:53 AM,75.9,73.0,91,29.99,10.0,Calm,Calm,-,N/A,,Clear,0,2013-08-23 10:53:00
6:53 AM,75.9,72.0,87,30.00,10.0,Calm,Calm,-,N/A,,Clear,0,2013-08-23 11:53:00
7:53 AM,77.0,73.0,88,30.01,10.0,Calm,Calm,-,N/A,,Clear,0,2013-08-23 12:53:00
8:53 AM,80.1,73.9,81,30.02,10.0,Calm,Calm,-,N/A,,Clear,0,2013-08-23 13:53:00
9:53 AM,82.9,73.9,74,30.01,10.0,Calm,Calm,-,N/A,,Clear,0,2013-08-23 14:53:00
10:53 AM,87.1,72.0,61,30.02,10.0,South,3.5,-,N/A,,Clear,180,2013-08-23 15:53:00
11:53 AM,91.9,71.1,50,30.01,10.0,North,3.5,-,N/A,,Clear,360,2013-08-23 16:53:00
12:53 PM,93.9,68.0,43,29.99,10.0,Variable,3.5,-,N/A,,Partly Cloudy,0,2013-08-23 17:53:00
1:53 PM,93.9,66.0,40,29.96,10.0,NE,8.1,-,N/A,,Partly Cloudy,50,2013-08-23 18:53:00
2:53 PM,96.1,68.0,40,29.94,10.0,North,6.9,-,0.00,,Scattered Clouds,10,2013-08-23 19:53:00
3:53 PM,98.1,66.0,35,29.91,10.0,Calm,Calm,-,N/A,,Partly Cloudy,0,2013-08-23 20:53:00
4:53 PM,96.1,66.9,38,29.88,10.0,Variable,3.5,-,0.00,,Partly Cloudy,0,2013-08-23 21:53:00
5:53 PM,97.0,66.0,36,29.88,10.0,SE,8.1,-,N/A,,Clear,140,2013-08-23 22:53:00
6:34 PM,98.6,64.4,32,29.89,10.0,Calm,Calm,-,N/A,Thunderstorm,Partly Cloudy,0,2013-08-23 23:34:00
6:53 PM,97.0,64.9,35,29.88,10.0,ESE,8.1,-,N/A,,Scattered Clouds,110,2013-08-23 23:53:00
7:53 PM,91.9,66.9,44,29.88,10.0,ENE,4.6,-,0.00,,Mostly Cloudy,70,2013-08-24 00:53:00
8:53 PM,89.1,68.0,50,29.91,10.0,WNW,3.5,-,N/A,Thunderstorm,Scattered Clouds,290,2013-08-24 01:53:00
9:14 PM,89.6,68.0,49,29.93,10.0,WSW,3.5,-,N/A,,Clear,250,2013-08-24 02:14:00
9:53 PM,89.1,68.0,50,29.94,10.0,ENE,4.6,-,N/A,,Mostly Cloudy,60,2013-08-24 02:53:00
10:53 PM,84.0,69.1,61,29.94,10.0,WSW,3.5,-,N/A,,Clear,240,2013-08-24 03:53:00
11:53 PM,84.0,69.1,61,29.95,10.0,Calm,Calm,-,N/A,,Partly Cloudy,0,2013-08-24 04:53:00